Regional Weather Roundup
Issued by NWS Lake Charles, LA

Home | Current Version | Previous Version | Text Only | Print | Product List | Glossary On
Versions: 1 2 3 4 5 6 7 8 9 10 11 12 13 14 15 16 17 18 19 20 21 22 23 24 25 26 27 28 29 30 31 32 33 34 35 36 37 38 39 40 41 42 43 44 45 46 47 48 49 50
000
ASUS44 KLCH 251010
RWRLCH
REGIONAL WEATHER ROUNDUP
NATIONAL WEATHER SERVICE LAKE CHARLES LA
500 AM CDT MON JUL 25 2016

Note: "fair" indicates few or no clouds below 12,000 feet with no
significant weather and/or obstructions to visibility.


ACROSS SOUTHEAST TEXAS

CITY           SKY/WX    TMP DP  RH WIND       PRES   REMARKS
BEAUMONT       CLOUDY    79  77  94 W3        29.92S
BEAUMONT CITY  FAIR      78  76  92 CALM      29.93S
ORANGE         PTSUNNY   77  75  93 CALM      29.94S FOG
JASPER         CLEAR     74  72  91 CALM      29.96S
$$

ACROSS CENTRAL LOUISIANA

CITY           SKY/WX    TMP DP  RH WIND       PRES   REMARKS
LEESVILLE      CLOUDY    75  74  96 N3        29.95R
FULLERTON      FAIR      76  74  93 CALM      29.93S
ALEXANDRIA INT PTCLDY    75  74  96 NW5       29.93S
ESLER FIELD    CLOUDY    75  74  96 VRB3      29.96R
DERIDDER       NOT AVBL
OAKDALE        CLOUDY    74  73  98 CALM      29.95R FOG
OPELOUSAS      FAIR      76  76  98 CALM      29.94S
$$

ACROSS SOUTHWEST AND SOUTH CENTRAL LOUISIANA

CITY           SKY/WX    TMP DP  RH WIND       PRES   REMARKS
SULPHUR        CLOUDY    79  77  94 CALM      29.93S
LAKE CHARLES   CLOUDY    78  75  90 NE5       29.93R
CHENNAULT INT  CLOUDY    76  74  95 CALM      29.93S
CAMERON PHI    NOT AVBL
DEQUINCY       FAIR      73  73  99 CALM      29.94R
JENNINGS       FAIR      75  75 100 CALM      29.93S
LAFAYETTE      CLOUDY    78  77  96 CALM      29.94R
NEW IBERIA     CLOUDY    79  77  94 E3        29.95R
ABBEVILLE      FAIR      76  76 100 CALM      29.94R
PATTERSON      PTCLDY    77  76  96 CALM      29.94S
SALT POINT       N/A     79  76  90 CALM      29.92R
$$

SELECTED SITES ACROSS THE REGION

CITY           SKY/WX    TMP DP  RH WIND       PRES   REMARKS
HOUSTON BUSH   MOCLDY    81  76  84 CALM      29.93S
HOUSTON HOBBY  CLEAR     82  77  84 NW5       29.93R
GALVESTON      PTCLDY    83  78  85 SW5       29.93R
COLLEGE STAT   CLOUDY    80  76  87 CALM      29.94S
CONROE         PTCLDY    77  75  93 CALM      29.95R
HUNTSVILLE     CLOUDY    78  75  90 NW3       29.96R
LUFKIN         CLOUDY    75  74  96 CALM      29.95S
SHREVEPORT     MOCLDY    76  74  93 CALM      29.95S
MONROE         CLEAR     74  74 100 NE3       29.97S
NATCHEZ MS     MOCLDY    73  70  88 CALM      29.97R
BATON ROUGE    CLOUDY    76  73  91 NE3       29.95S
N.O. INTL ARPT CLOUDY    81  77  88 CALM      29.93S
SLIDELL        CLEAR     75  74  96 CALM      29.94R
$$

MARINE REPORTS

STATION/POSITION TIME  SKY/WX   TEMP    WIND        PRES    VSBY
                                AIR SEA DIR/SP/G
                 (UTC)          (F)     (DEG/KT/KT) (MB)    (MI)
BUOY 30 S HIGH I 0950            86 89  230/ 10/ 12 1013.0S
WVE H/P(F/S)=  2/ 5

SEA RIM ST PARK  1000            81     320/  4/  4 1013.9R
PORT ARTHUR      0900               90  260/  4/  6 1013.3S
SABINE PASS N    0900            83 90  240/  1/  3 1014.5F
TEXAS POINT      NOT AVBL
CALCASIEU PASS   0900            84 90  300/  5/  7 1012.4S
LK CHARLES BEACH 0900            77 89              1013.8S
MARSH ISLAND     0900            86                   N/A
FRESH WATER LOCK 0900            81 89  300/  2/  3 1013.8F
AMERADA PASS     0900            78 86   CALM  /  4 1013.3R
$$



USA.gov is the U.S. government's official web portal to all federal, state and local government web resources and services.